Location: Newark
(32.9833°N, 70.6000°E)
Time: 01:10:59
(UTC+00:00)

Hubble Space Telescope - Visible Passes

Search period start: 29 March 2020 00:00
Search period end: 08 April 2020 00:00
Orbit: 536 x 540 km, 28.5° (Epoch: 28 March)

Date Brightness Start Highest point End Pass type
(mag) Time Alt. Az. Time Alt. Az. Time Alt. Az.
29 Mar 2.7 00:40:45 10° WSW 00:43:16 16° SSW 00:45:48 10° SSE visible
29 Mar 3.3 22:54:55 13° SE 22:54:55 13° SE 22:55:32 10° SE visible
30 Mar 2.9 00:30:40 10° SW 00:32:31 13° SSW 00:34:23 10° S visible
04 Apr 2.9 15:01:58 10° SSW 15:03:16 14° S 15:03:16 14° S visible
05 Apr 2.4 14:50:44 10° SSW 14:53:35 18° SSE 14:53:43 18° SSE visible
06 Apr 2.2 14:39:40 10° SSW 14:42:51 22° SSE 14:44:05 19° SE visible
07 Apr 2.0 14:28:42 10° SW 14:32:07 25° SSE 14:34:21 16° ESE visible
07 Apr 3.4 16:09:03 10° WSW 16:09:42 14° WSW 16:09:42 14° WSW visible
